TimeEDT,TemperatureF,Dew PointF,Humidity,Sea Level PressureIn,VisibilityMPH,Wind Direction,Wind SpeedMPH,Gust SpeedMPH,PrecipitationIn,Events,Conditions,WindDirDegrees,DateUTC
12:53 AM,54.0,51.1,90,30.10,10.0,Calm,Calm,-,N/A,,Clear,0,2013-09-07 04:53:00
1:53 AM,53.1,48.9,86,30.10,10.0,Calm,Calm,-,N/A,,Clear,0,2013-09-07 05:53:00
2:53 AM,52.0,48.9,89,30.09,10.0,Calm,Calm,-,N/A,,Clear,0,2013-09-07 06:53:00
3:53 AM,53.1,48.9,86,30.09,10.0,Calm,Calm,-,N/A,,Clear,0,2013-09-07 07:53:00
4:53 AM,52.0,50.0,93,30.07,10.0,WSW,3.5,-,N/A,,Clear,240,2013-09-07 08:53:00
5:53 AM,55.0,48.0,77,30.06,10.0,West,4.6,-,N/A,,Clear,260,2013-09-07 09:53:00
6:53 AM,55.9,48.0,75,30.06,10.0,WSW,3.5,-,N/A,,Scattered Clouds,250,2013-09-07 10:53:00
7:53 AM,57.0,48.9,74,30.06,10.0,WSW,4.6,-,N/A,,Mostly Cloudy,240,2013-09-07 11:53:00
8:53 AM,60.1,51.1,72,30.05,10.0,SW,5.8,-,N/A,,Partly Cloudy,230,2013-09-07 12:53:00
9:53 AM,68.0,55.9,65,30.04,10.0,West,8.1,-,N/A,,Partly Cloudy,270,2013-09-07 13:53:00
10:53 AM,73.0,61.0,66,30.03,10.0,West,8.1,-,N/A,,Clear,270,2013-09-07 14:53:00
11:53 AM,80.1,63.0,56,30.01,10.0,West,9.2,-,N/A,,Clear,270,2013-09-07 15:53:00
12:53 PM,81.0,63.0,54,30.01,10.0,West,9.2,-,N/A,,Mostly Cloudy,270,2013-09-07 16:53:00
1:53 PM,81.0,61.0,50,29.99,10.0,West,9.2,-,N/A,,Scattered Clouds,270,2013-09-07 17:53:00
2:53 PM,77.0,64.9,66,29.97,10.0,Calm,Calm,-,0.00,,Mostly Cloudy,0,2013-09-07 18:53:00
3:53 PM,75.9,63.0,64,29.96,10.0,WSW,4.6,-,0.00,,Scattered Clouds,250,2013-09-07 19:53:00
4:53 PM,75.9,61.0,60,29.96,10.0,Calm,Calm,-,N/A,,Mostly Cloudy,0,2013-09-07 20:53:00
5:53 PM,79.0,60.1,52,29.94,10.0,Calm,Calm,-,N/A,,Partly Cloudy,0,2013-09-07 21:53:00
6:53 PM,75.9,64.0,67,29.94,10.0,Calm,Calm,-,N/A,,Mostly Cloudy,0,2013-09-07 22:53:00
7:53 PM,73.9,64.9,73,29.94,10.0,Calm,Calm,-,N/A,,Scattered Clouds,0,2013-09-07 23:53:00
8:53 PM,69.1,64.9,87,29.94,10.0,NW,3.5,-,N/A,,Clear,310,2013-09-08 00:53:00
9:53 PM,68.0,63.0,84,29.95,10.0,Calm,Calm,-,N/A,,Clear,0,2013-09-08 01:53:00
10:53 PM,66.9,63.0,87,29.96,10.0,Calm,Calm,-,N/A,,Mostly Cloudy,0,2013-09-08 02:53:00
11:53 PM,68.0,64.0,87,29.96,10.0,NNW,3.5,-,N/A,,Overcast,330,2013-09-08 03:53:00